QPF
0.02 0.02 0.01 0.01 0.01 0.02 0.04 0.06 0.05 0.06 0.07 0.05 0.04 0.04 0.04 0.06 0.08 0.09 0.09 0.09 0.06 0.04 0.04 0.03 0.03 0.03 0.03 0.04 0.05 0.06 0.08 0.07 0.07 0.10 0.09 0.08 0.08 0.07 0.06 0.07 0.09 0.08 0.06
0.01 0.01 0.01 0.01 0.00 0.01 0.01 0.01 0.01 0.02 0.05 0.07 0.04 0.04 0.04 0.06 0.08 0.08 0.08 0.07 0.05 0.04 0.03 0.03 0.02 0.02 0.03 0.03 0.05 0.06 0.06 0.07 0.07 0.09 0.09 0.08 0.07 0.06 0.05 0.05 0.10 0.12 0.11
0.01 0.01 0.01 0.01 0.01 0.01 0.01 0.01 0.01 0.01 0.03 0.07 0.09 0.04 0.05 0.05 0.07 0.09 0.07 0.07 0.06 0.04 0.04 0.05 0.05 0.03 0.02 0.02 0.02 0.03 0.04 0.05 0.06 0.08 0.09 0.09 0.06 0.06 0.06 0.06 0.07 0.08 0.08
0.04 0.03 0.02 0.02 0.01 0.01 0.01 0.01 0.01 0.02 0.02 0.04 0.09 0.09 0.05 0.04 0.06 0.10 0.09 0.06 0.04 0.03 0.03 0.04 0.04 0.04 0.04 0.03 0.03 0.02 0.02 0.03 0.04 0.07 0.07 0.07 0.05 0.05 0.05 0.05 0.05 0.05 0.05
0.05 0.04 0.03 0.02 0.02 0.02 0.02 0.02 0.02 0.03 0.03 0.03 0.04 0.08 0.06 0.04 0.03 0.05 0.08 0.06 0.04 0.03 0.03 0.03 0.03 0.03 0.03 0.03 0.03 0.03 0.03 0.03 0.04 0.06 0.07 0.06 0.05 0.04 0.04 0.04 0.04 0.04 0.04
0.03 0.03 0.03 0.02 0.02 0.03 0.03 0.04 0.05 0.05 0.05 0.05 0.05 0.06 0.05 0.03 0.02 0.03 0.04 0.03 0.05 0.05 0.05 0.04 0.03 0.03 0.03 0.03 0.03 0.04 0.04 0.04 0.04 0.04 0.06 0.05 0.04 0.04 0.04 0.03 0.03 0.04 0.03
0.03 0.02 0.03 0.04 0.04 0.05 0.06 0.05 0.05 0.07 0.08 0.07 0.07 0.09 0.07 0.04 0.03 0.02 0.03 0.04 0.04 0.06 0.07 0.07 0.05 0.04 0.04 0.05 0.04 0.04 0.04 0.05 0.04 0.03 0.04 0.04 0.03 0.03 0.03 0.04 0.03 0.03 0.04
0.04 0.04 0.05 0.06 0.07 0.08 0.10 0.12 0.08 0.06 0.07 0.08 0.10 0.12 0.09 0.07 0.04 0.03 0.04 0.05 0.06 0.06 0.07 0.09 0.07 0.06 0.06 0.07 0.07 0.04 0.04 0.05 0.04 0.03 0.05 0.06 0.04 0.03 0.03 0.03 0.03 0.03 0.04
0.02 0.04 0.05 0.08 0.14 0.11 0.10 0.14 0.17 0.15 0.11 0.10 0.14 0.14 0.12 0.10 0.06 0.03 0.03 0.04 0.05 0.07 0.08 0.09 0.08 0.07 0.05 0.04 0.05 0.05 0.05 0.04 0.04 0.04 0.06 0.07 0.06 0.05 0.04 0.03 0.04 0.04 0.04
0.03 0.04 0.04 0.08 0.15 0.16 0.14 0.13 0.14 0.15 0.14 0.11 0.13 0.15 0.10 0.07 0.07 0.03 0.02 0.03 0.03 0.05 0.06 0.07 0.05 0.04 0.04 0.03 0.04 0.05 0.06 0.05 0.04 0.05 0.08 0.09 0.09 0.08 0.07 0.05 0.05 0.05 0.04
0.03 0.03 0.03 0.06 0.08 0.13 0.14 0.11 0.08 0.08 0.07 0.09 0.07 0.07 0.06 0.06 0.07 0.04 0.04 0.04 0.04 0.05 0.06 0.07 0.07 0.05 0.04 0.04 0.05 0.06 0.08 0.09 0.08 0.08 0.09 0.08 0.08 0.11 0.11 0.09 0.09 0.09 0.07
0.03 0.04 0.04 0.04 0.04 0.06 0.07 0.10 0.08 0.06 0.05 0.06 0.05 0.04 0.05 0.06 0.06 0.04 0.03 0.04 0.04 0.05 0.10 0.08 0.08 0.07 0.07 0.07 0.07 0.08 0.09 0.09 0.09 0.08 0.08 0.07 0.06 0.07 0.07 0.07 0.08 0.11 0.09
0.03 0.04 0.04 0.03 0.03 0.05 0.10 0.11 0.09 0.09 0.07 0.06 0.05 0.05 0.06 0.07 0.06 0.04 0.03 0.03 0.03 0.04 0.10 0.08 0.06 0.05 0.07 0.08 0.08 0.08 0.07 0.08 0.08 0.09 0.07 0.06 0.05 0.05 0.05 0.04 0.04 0.06 0.06
0.03 0.03 0.03 0.03 0.03 0.03 0.07 0.10 0.11 0.10 0.09 0.07 0.06 0.05 0.06 0.07 0.08 0.05 0.03 0.02 0.02 0.03 0.06 0.08 0.08 0.07 0.08 0.08 0.08 0.08 0.07 0.07 0.06 0.05 0.05 0.05 0.05 0.05 0.04 0.03 0.03 0.03 0.03
0.05 0.04 0.03 0.04 0.04 0.05 0.07 0.08 0.07 0.08 0.08 0.06 0.04 0.05 0.06 0.07 0.06 0.05 0.02 0.01 0.01 0.01 0.03 0.08 0.10 0.08 0.08 0.09 0.10 0.08 0.06 0.05 0.04 0.03 0.02 0.02 0.03 0.04 0.03 0.02 0.01 0.02 0.02
0.06 0.05 0.04 0.05 0.06 0.07 0.07 0.08 0.06 0.05 0.05 0.05 0.05 0.05 0.06 0.08 0.05 0.04 0.03 0.02 0.01 0.02 0.02 0.04 0.07 0.07 0.06 0.09 0.10 0.08 0.04 0.03 0.02 0.02 0.02 0.01 0.02 0.03 0.02 0.02 0.02 0.02 0.02
0.04 0.03 0.04 0.05 0.07 0.08 0.07 0.06 0.06 0.04 0.04 0.06 0.06 0.05 0.05 0.08 0.07 0.05 0.03 0.03 0.02 0.02 0.02 0.03 0.04 0.05 0.06 0.07 0.06 0.04 0.02 0.02 0.01 0.01 0.01 0.01 0.01 0.01 0.01 0.01 0.01 0.01 0.02
0.03 0.03 0.03 0.03 0.04 0.07 0.07 0.06 0.07 0.06 0.05 0.05 0.06 0.07 0.05 0.07 0.06 0.05 0.03 0.03 0.03 0.03 0.04 0.03 0.03 0.03 0.05 0.05 0.04 0.02 0.01 0.01 0.01 0.01 0.01 0.01 0.01 0.01 0.01 0.01 0.01 0.01 0.02
0.04 0.04 0.04 0.03 0.03 0.05 0.07 0.06 0.06 0.06 0.05 0.05 0.05 0.05 0.05 0.05 0.04 0.03 0.03 0.03 0.03 0.03 0.02 0.02 0.03 0.03 0.03 0.04 0.04 0.03 0.02 0.01 0.01 0.01 0.01 0.01 0.01 0.01 0.01 0.01 0.01 0.01 0.01
0.05 0.05 0.06 0.04 0.03 0.03 0.04 0.04 0.04 0.05 0.04 0.03 0.03 0.05 0.05 0.04 0.04 0.03 0.03 0.03 0.03 0.03 0.02 0.03 0.05 0.06 0.06 0.05 0.04 0.03 0.02 0.02 0.02 0.02 0.02 0.02 0.01 0.01 0.01 0.01 0.01 0.01 0.01
0.06 0.07 0.06 0.07 0.06 0.04 0.03 0.04 0.05 0.05 0.06 0.04 0.04 0.06 0.06 0.05 0.04 0.03 0.03 0.02 0.02 0.03 0.03 0.03 0.05 0.05 0.06 0.05 0.05 0.04 0.03 0.02 0.02 0.02 0.02 0.02 0.02 0.01 0.01 0.01 0.01 0.01 0.02
0.04 0.05 0.05 0.06 0.06 0.06 0.04 0.04 0.05 0.05 0.05 0.04 0.04 0.07 0.07 0.06 0.05 0.03 0.03 0.04 0.03 0.02 0.02 0.01 0.02 0.02 0.03 0.03 0.03 0.02 0.02 0.02 0.01 0.01 0.01 0.02 0.02 0.02 0.02 0.02 0.02 0.02 0.02
0.04 0.04 0.05 0.05 0.06 0.07 0.07 0.05 0.05 0.05 0.05 0.04 0.05 0.07 0.08 0.07 0.06 0.05 0.03 0.04 0.04 0.02 0.02 0.01 0.01 0.01 0.01 0.01 0.01 0.01 0.01 0.01 0.00 0.00 0.01 0.01 0.02 0.02 0.02 0.02 0.02 0.02 0.02
0.01 0.02 0.04 0.04 0.05 0.06 0.07 0.05 0.04 0.05 0.05 0.04 0.04 0.06 0.07 0.06 0.05 0.05 0.04 0.03 0.02 0.01 0.01 0.01 0.01 0.01 0.01 0.01 0.01 0.01 0.01 0.00 0.00 0.00 0.00 0.01 0.01 0.01 0.01 0.02 0.02 0.02 0.02
0.01 0.01 0.02 0.04 0.06 0.07 0.08 0.05 0.04 0.03 0.04 0.05 0.05 0.06 0.05 0.04 0.04 0.04 0.03 0.03 0.02 0.01 0.01 0.01 0.01 0.00 0.01 0.02 0.02 0.01 0.00 0.00 0.01 0.00 0.00 0.00 0.00 0.00 0.00 0.00 0.00 0.01 0.01
0.01 0.02 0.03 0.06 0.05 0.07 0.08 0.06 0.05 0.03 0.03 0.04 0.07 0.06 0.05 0.05 0.04 0.04 0.03 0.03 0.02 0.02 0.01 0.01 0.01 0.01 0.01 0.01 0.01 0.01 0.01 0.01 0.01 0.00 0.00 0.00 0.00 0.00 0.00 0.00 0.00 0.00 0.00
MSLP
1004.89 1005.37 1005.88 1006.37 1006.83 1007.26 1007.68 1008.10 1008.57 1009.08 1009.63 1010.20 1010.76 1011.28 1011.72 1012.08 1012.36 1012.60 1012.82 1013.07 1013.39 1013.79 1014.26 1014.80 1015.36 1015.90 1016.37 1016.77 1017.08 1017.31 1017.48 1017.63 1017.76 1017.90 1018.04 1018.17 1018.26 1018.30 1018.26 1018.15 1017.98 1017.77 1017.57
1004.28 1004.74 1005.24 1005.73 1006.20 1006.65 1007.11 1007.60 1008.14 1008.75 1009.41 1010.09 1010.74 1011.33 1011.81 1012.18 1012.45 1012.65 1012.83 1013.04 1013.33 1013.72 1014.21 1014.77 1015.36 1015.93 1016.43 1016.85 1017.17 1017.40 1017.57 1017.72 1017.87 1018.03 1018.21 1018.38 1018.52 1018.60 1018.60 1018.50 1018.33 1018.10 1017.85
1003.53 1003.97 1004.47 1004.97 1005.46 1005.95 1006.46 1007.01 1007.64 1008.34 1009.10 1009.88 1010.63 1011.29 1011.83 1012.22 1012.50 1012.68 1012.84 1013.03 1013.30 1013.68 1014.16 1014.73 1015.33 1015.91 1016.43 1016.86 1017.19 1017.43 1017.61 1017.77 1017.94 1018.14 1018.36 1018.59 1018.79 1018.92 1018.97 1018.91 1018.76 1018.53 1018.27
1002.71 1003.14 1003.64 1004.16 1004.68 1005.21 1005.76 1006.36 1007.05 1007.82 1008.66 1009.52 1010.35 1011.08 1011.68 1012.13 1012.43 1012.64 1012.80 1012.99 1013.25 1013.62 1014.09 1014.66 1015.26 1015.84 1016.37 1016.81 1017.14 1017.40 1017.60 1017.79 1017.99 1018.22 1018.48 1018.76 1019.01 1019.21 1019.31 1019.31 1019.20 1018.99 1018.72
1001.89 1002.32 1002.83 1003.38 1003.92 1004.47 1005.04 1005.66 1006.37 1007.18 1008.06 1008.97 1009.86 1010.66 1011.33 1011.85 1012.21 1012.47 1012.67 1012.87 1013.14 1013.51 1013.98 1014.53 1015.13 1015.71 1016.24 1016.69 1017.05 1017.33 1017.55 1017.77 1018.00 1018.26 1018.56 1018.87 1019.17 1019.41 1019.57 1019.61 1019.55 1019.37 1019.12
1001.16 1001.59 1002.13 1002.69 1003.25 1003.79 1004.35 1004.95 1005.64 1006.43 1007.31 1008.24 1009.16 1010.02 1010.77 1011.36 1011.81 1012.14 1012.41 1012.66 1012.96 1013.34 1013.81 1014.35 1014.94 1015.52 1016.06 1016.52 1016.90 1017.21 1017.47 1017.72 1017.97 1018.26 1018.57 1018.90 1019.22 1019.49 1019.68 1019.77 1019.75 1019.61 1019.39
1000.56 1001.02 1001.57 1002.14 1002.69 1003.21 1003.72 1004.26 1004.89 1005.62 1006.45 1007.36 1008.29 1009.20 1010.01 1010.69 1011.24 1011.67 1012.02 1012.34 1012.69 1013.09 1013.57 1014.11 1014.69 1015.28 1015.82 1016.31 1016.72 1017.07 1017.37 1017.64 1017.92 1018.21 1018.53 1018.85 1019.17 1019.45 1019.65 1019.77 1019.78 1019.69 1019.50
1000.12 1000.61 1001.18 1001.75 1002.27 1002.73 1003.17 1003.61 1004.14 1004.78 1005.53 1006.40 1007.32 1008.25 1009.12 1009.89 1010.54 1011.08 1011.52 1011.93 1012.33 1012.77 1013.27 1013.82 1014.40 1014.99 1015.55 1016.07 1016.52 1016.91 1017.24 1017.55 1017.84 1018.13 1018.43 1018.74 1019.03 1019.29 1019.49 1019.62 1019.67 1019.61 1019.47
999.84 1000.36 1000.95 1001.50 1001.97 1002.36 1002.69 1003.03 1003.43 1003.96 1004.62 1005.42 1006.32 1007.26 1008.18 1009.03 1009.78 1010.42 1010.97 1011.46 1011.93 1012.41 1012.92 1013.49 1014.08 1014.68 1015.26 1015.81 1016.30 1016.73 1017.10 1017.43 1017.73 1018.02 1018.30 1018.57 1018.83 1019.07 1019.26 1019.40 1019.47 1019.45 1019.36
999.71 1000.25 1000.83 1001.35 1001.75 1002.05 1002.28 1002.49 1002.78 1003.20 1003.77 1004.51 1005.37 1006.31 1007.27 1008.18 1009.01 1009.75 1010.39 1010.96 1011.49 1012.01 1012.56 1013.13 1013.74 1014.36 1014.97 1015.54 1016.07 1016.54 1016.95 1017.30 1017.61 1017.89 1018.14 1018.38 1018.61 1018.82 1019.00 1019.15 1019.25 1019.28 1019.23
999.72 1000.26 1000.80 1001.25 1001.57 1001.78 1001.90 1002.01 1002.21 1002.53 1003.03 1003.71 1004.54 1005.48 1006.46 1007.42 1008.32 1009.12 1009.83 1010.46 1011.05 1011.61 1012.18 1012.78 1013.40 1014.04 1014.67 1015.28 1015.84 1016.34 1016.78 1017.15 1017.46 1017.73 1017.97 1018.18 1018.39 1018.58 1018.76 1018.92 1019.05 1019.14 1019.15
999.84 1000.33 1000.80 1001.16 1001.39 1001.50 1001.53 1001.57 1001.69 1001.96 1002.41 1003.05 1003.87 1004.80 1005.79 1006.77 1007.71 1008.56 1009.32 1010.00 1010.62 1011.22 1011.82 1012.44 1013.08 1013.73 1014.39 1015.02 1015.60 1016.13 1016.58 1016.96 1017.28 1017.54 1017.76 1017.97 1018.16 1018.35 1018.54 1018.73 1018.90 1019.04 1019.11
1000.03 1000.44 1000.80 1001.05 1001.17 1001.19 1001.15 1001.14 1001.22 1001.46 1001.90 1002.53 1003.33 1004.26 1005.25 1006.25 1007.19 1008.06 1008.85 1009.56 1010.21 1010.84 1011.47 1012.11 1012.77 1013.45 1014.12 1014.76 1015.36 1015.90 1016.36 1016.74 1017.05 1017.31 1017.52 1017.72 1017.91 1018.11 1018.33 1018.55 1018.76 1018.95 1019.08
1000.26 1000.54 1000.76 1000.87 1000.89 1000.82 1000.73 1000.69 1000.77 1001.02 1001.47 1002.11 1002.92 1003.85 1004.83 1005.81 1006.76 1007.63 1008.42 1009.15 1009.82 1010.48 1011.13 1011.80 1012.48 1013.18 1013.86 1014.51 1015.12 1015.65 1016.10 1016.47 1016.77 1017.02 1017.23 1017.43 1017.63 1017.85 1018.08 1018.34 1018.59 1018.82 1018.99
1000.46 1000.58 1000.63 1000.60 1000.50 1000.36 1000.24 1000.21 1000.31 1000.60 1001.08 1001.75 1002.57 1003.49 1004.47 1005.44 1006.36 1007.22 1008.01 1008.74 1009.44 1010.12 1010.80 1011.50 1012.21 1012.92 1013.62 1014.27 1014.87 1015.39 1015.82 1016.17 1016.46 1016.69 1016.89 1017.09 1017.29 1017.53 1017.78 1018.06 1018.34 1018.60 1018.80
1000.58 1000.51 1000.39 1000.22 1000.01 999.81 999.67 999.65 999.80 1000.14 1000.68 1001.39 1002.23 1003.16 1004.12 1005.06 1005.97 1006.81 1007.60 1008.34 1009.05 1009.76 1010.48 1011.21 1011.95 1012.68 1013.38 1014.04 1014.62 1015.12 1015.53 1015.85 1016.11 1016.33 1016.52 1016.71 1016.92 1017.16 1017.43 1017.72 1018.01 1018.27 1018.49
1000.55 1000.30 1000.02 999.71 999.41 999.16 999.02 999.03 999.23 999.63 1000.22 1000.98 1001.84 1002.78 1003.73 1004.66 1005.55 1006.38 1007.17 1007.92 1008.65 1009.39 1010.15 1010.91 1011.68 1012.43 1013.15 1013.80 1014.37 1014.85 1015.23 1015.53 1015.77 1015.97 1016.15 1016.33 1016.54 1016.78 1017.04 1017.33 1017.61 1017.86 1018.06
1000.35 999.94 999.52 999.09 998.72 998.44 998.30 998.35 998.60 999.06 999.71 1000.50 1001.39 1002.33 1003.29 1004.21 1005.09 1005.92 1006.71 1007.48 1008.24 1009.01 1009.80 1010.60 1011.40 1012.17 1012.90 1013.55 1014.11 1014.57 1014.94 1015.23 1015.45 1015.64 1015.82 1016.00 1016.20 1016.43 1016.68 1016.95 1017.20 1017.42 1017.59
1000.00 999.48 998.94 998.44 998.02 997.72 997.59 997.66 997.96 998.46 999.14 999.96 1000.88 1001.83 1002.79 1003.71 1004.59 1005.43 1006.24 1007.03 1007.82 1008.62 1009.45 1010.27 1011.09 1011.88 1012.61 1013.26 1013.82 1014.29 1014.65 1014.94 1015.17 1015.37 1015.55 1015.74 1015.94 1016.16 1016.40 1016.64 1016.85 1017.03 1017.15
999.61 999.00 998.41 997.85 997.40 997.08 996.95 997.04 997.35 997.88 998.58 999.42 1000.34 1001.30 1002.26 1003.20 1004.09 1004.94 1005.77 1006.58 1007.40 1008.23 1009.07 1009.91 1010.74 1011.54 1012.27 1012.93 1013.50 1013.97 1014.36 1014.66 1014.92 1015.14 1015.35 1015.56 1015.77 1016.00 1016.22 1016.43 1016.61 1016.75 1016.82
999.29 998.65 998.02 997.45 996.97 996.64 996.50 996.58 996.89 997.40 998.09 998.92 999.83 1000.79 1001.76 1002.70 1003.60 1004.47 1005.32 1006.15 1006.99 1007.82 1008.67 1009.52 1010.34 1011.13 1011.87 1012.53 1013.11 1013.60 1014.02 1014.37 1014.67 1014.94 1015.19 1015.43 1015.67 1015.91 1016.13 1016.33 1016.48 1016.58 1016.61
999.19 998.55 997.92 997.34 996.85 996.50 996.33 996.37 996.63 997.10 997.75 998.54 999.42 1000.36 1001.32 1002.26 1003.17 1004.06 1004.92 1005.76 1006.60 1007.43 1008.27 1009.09 1009.90 1010.67 1011.39 1012.05 1012.65 1013.17 1013.63 1014.03 1014.38 1014.71 1015.02 1015.31 1015.59 1015.85 1016.08 1016.27 1016.41 1016.49 1016.49
999.43 998.82 998.20 997.62 997.11 996.72 996.50 996.47 996.65 997.04 997.61 998.33 999.15 1000.05 1000.98 1001.91 1002.83 1003.72 1004.58 1005.42 1006.25 1007.06 1007.87 1008.66 1009.43 1010.17 1010.87 1011.52 1012.12 1012.67 1013.17 1013.62 1014.04 1014.42 1014.79 1015.13 1015.44 1015.73 1015.98 1016.17 1016.32 1016.39 1016.40
1000.08 999.51 998.91 998.32 997.78 997.34 997.03 996.91 996.98 997.25 997.70 998.32 999.06 999.89 1000.78 1001.68 1002.58 1003.46 1004.32 1005.15 1005.95 1006.73 1007.49 1008.23 1008.95 1009.65 1010.32 1010.95 1011.55 1012.11 1012.64 1013.14 1013.60 1014.04 1014.45 1014.83 1015.18 1015.49 1015.75 1015.96 1016.12 1016.20 1016.23
1001.14 1000.59 1000.01 999.40 998.82 998.31 997.91 997.66 997.59 997.72 998.03 998.52 999.15 999.89 1000.71 1001.57 1002.44 1003.30 1004.13 1004.93 1005.71 1006.45 1007.16 1007.85 1008.51 1009.16 1009.78 1010.39 1010.98 1011.54 1012.09 1012.61 1013.10 1013.56 1014.00 1014.40 1014.76 1015.08 1015.35 1015.57 1015.73 1015.84 1015.90
1002.50 1001.99 1001.41 1000.78 1000.14 999.55 999.04 998.65 998.44 998.40 998.56 998.90 999.41 1000.04 1000.77 1001.57 1002.39 1003.21 1004.02 1004.79 1005.53 1006.22 1006.89 1007.52 1008.14 1008.73 1009.32 1009.89 1010.45 1011.01 1011.54 1012.06 1012.55 1013.01 1013.44 1013.83 1014.18 1014.49 1014.75 1014.97 1015.14 1015.28 1015.37
Thickness
5786 5787 5787 5785 5780 5775 5771 5768 5764 5761 5759 5755 5750 5747 5746 5745 5744 5744 5742 5741 5739 5737 5736 5734 5733 5732 5729 5727 5726 5724 5723 5721 5721 5718 5716 5717 5719 5720 5720 5721 5721 5722 5721
5779 5780 5780 5779 5776 5772 5768 5765 5762 5760 5757 5753 5749 5747 5744 5742 5741 5740 5739 5738 5737 5735 5734 5732 5730 5728 5726 5724 5723 5722 5719 5718 5718 5714 5708 5705 5707 5712 5717 5717 5717 5718 5718
5776 5774 5774 5773 5771 5768 5765 5763 5760 5757 5754 5752 5747 5744 5740 5737 5735 5735 5735 5735 5734 5733 5731 5729 5727 5725 5724 5722 5720 5720 5717 5714 5714 5714 5709 5702 5699 5703 5708 5711 5712 5713 5713
5772 5770 5769 5767 5766 5764 5762 5760 5757 5754 5751 5748 5744 5739 5735 5731 5731 5731 5731 5731 5731 5730 5728 5727 5725 5723 5722 5720 5719 5718 5716 5714 5710 5710 5711 5709 5707 5701 5699 5703 5707 5708 5708
5769 5766 5766 5765 5763 5761 5758 5755 5752 5750 5747 5745 5741 5737 5733 5731 5729 5729 5728 5727 5727 5726 5726 5724 5723 5721 5720 5718 5717 5716 5715 5713 5710 5708 5707 5705 5704 5703 5698 5695 5698 5701 5704
5766 5764 5764 5762 5759 5757 5754 5751 5747 5744 5742 5740 5737 5735 5731 5728 5726 5725 5723 5723 5723 5722 5722 5721 5720 5719 5718 5717 5716 5714 5713 5711 5709 5707 5706 5703 5701 5699 5697 5693 5693 5693 5697
5762 5759 5757 5755 5752 5750 5749 5747 5744 5741 5738 5737 5734 5732 5730 5727 5725 5723 5722 5721 5719 5718 5718 5718 5717 5716 5716 5715 5714 5712 5710 5708 5706 5705 5704 5703 5702 5701 5697 5693 5690 5689 5691
5758 5755 5754 5752 5748 5747 5746 5743 5741 5738 5736 5733 5731 5729 5727 5725 5724 5723 5722 5720 5718 5717 5717 5716 5715 5714 5714 5713 5711 5709 5707 5706 5704 5703 5702 5701 5700 5699 5697 5694 5689 5684 5684
5754 5751 5750 5749 5745 5743 5742 5740 5738 5734 5732 5730 5728 5725 5724 5723 5722 5721 5720 5719 5717 5716 5715 5714 5713 5712 5711 5710 5708 5706 5704 5703 5701 5700 5699 5698 5697 5697 5696 5694 5691 5685 5679
5749 5747 5746 5744 5742 5740 5739 5736 5733 5729 5728 5726 5725 5723 5722 5721 5721 5719 5718 5717 5716 5715 5713 5712 5711 5709 5708 5707 5705 5703 5701 5699 5698 5697 5696 5694 5694 5693 5692 5691 5689 5687 5682
5746 5743 5741 5740 5738 5737 5735 5732 5729 5726 5723 5722 5721 5720 5719 5719 5719 5717 5716 5715 5714 5712 5711 5710 5708 5706 5705 5704 5701 5699 5698 5696 5695 5694 5692 5691 5690 5689 5688 5688 5686 5684 5682
5743 5740 5738 5735 5733 5731 5729 5727 5726 5723 5722 5720 5718 5717 5717 5716 5715 5714 5714 5713 5711 5710 5708 5706 5705 5703 5701 5700 5698 5696 5694 5693 5691 5690 5689 5688 5688 5686 5684 5683 5682 5680 5679
5737 5734 5732 5729 5727 5726 5724 5722 5720 5719 5718 5716 5714 5713 5713 5712 5711 5710 5710 5709 5708 5706 5704 5703 5700 5699 5698 5696 5695 5693 5692 5690 5688 5687 5686 5685 5684 5682 5681 5680 5679 5678 5677
5730 5727 5724 5723 5722 5721 5719 5717 5715 5715 5713 5712 5711 5708 5708 5708 5708 5707 5706 5705 5704 5702 5700 5699 5697 5695 5694 5692 5691 5689 5688 5686 5684 5684 5683 5682 5681 5679 5678 5677 5676 5675 5672
5722 5720 5719 5717 5716 5715 5714 5713 5711 5710 5708 5707 5706 5705 5705 5705 5704 5703 5701 5700 5699 5697 5695 5694 5692 5691 5690 5689 5687 5685 5684 5681 5680 5679 5679 5679 5678 5678 5676 5675 5673 5671 5669
5715 5715 5714 5713 5712 5711 5709 5708 5706 5704 5703 5702 5701 5701 5700 5700 5699 5698 5696 5694 5693 5691 5690 5688 5686 5685 5685 5684 5683 5682 5679 5678 5676 5675 5674 5675 5674 5674 5673 5672 5671 5669 5666
5712 5710 5710 5709 5707 5706 5705 5702 5701 5700 5697 5696 5696 5696 5696 5694 5693 5693 5691 5689 5687 5686 5684 5683 5681 5679 5679 5679 5679 5678 5675 5674 5672 5671 5670 5671 5670 5668 5667 5666 5666 5665 5664
5707 5704 5703 5702 5702 5701 5699 5698 5697 5695 5693 5691 5690 5691 5690 5688 5687 5686 5684 5683 5682 5680 5678 5676 5675 5674 5674 5674 5673 5672 5671 5669 5668 5666 5665 5664 5663 5663 5661 5660 5658 5657 5657
5703 5700 5699 5697 5696 5695 5694 5692 5690 5689 5687 5686 5685 5685 5685 5683 5681 5679 5678 5677 5675 5673 5672 5671 5670 5668 5667 5668 5667 5666 5664 5663 5661 5661 5660 5659 5658 5657 5656 5654 5651 5650 5650
5698 5696 5694 5692 5690 5689 5689 5686 5684 5682 5681 5681 5681 5680 5680 5678 5676 5674 5673 5672 5670 5668 5667 5665 5664 5663 5662 5661 5661 5661 5658 5656 5655 5654 5654 5654 5653 5652 5650 5648 5646 5644 5643
5691 5690 5687 5685 5683 5683 5683 5679 5678 5676 5677 5677 5676 5675 5674 5673 5671 5669 5667 5666 5664 5662 5660 5658 5657 5656 5656 5655 5655 5654 5652 5650 5648 5648 5647 5647 5647 5646 5645 5644 5642 5640 5639
5683 5682 5679 5677 5677 5677 5676 5673 5671 5672 5673 5671 5670 5669 5668 5668 5667 5663 5661 5660 5658 5655 5653 5651 5649 5649 5649 5649 5648 5647 5647 5646 5643 5642 5641 5642 5642 5641 5640 5639 5638 5637 5635
5675 5674 5672 5670 5669 5669 5669 5667 5666 5666 5665 5664 5663 5662 5661 5660 5659 5657 5655 5653 5650 5648 5646 5644 5642 5641 5642 5641 5642 5641 5640 5639 5637 5636 5636 5636 5636 5635 5634 5634 5633 5631 5628
5668 5667 5665 5662 5661 5662 5662 5661 5661 5661 5659 5657 5655 5655 5653 5652 5652 5651 5650 5648 5644 5643 5641 5638 5636 5635 5634 5634 5634 5633 5632 5632 5631 5630 5629 5629 5629 5628 5628 5626 5625 5624 5622
5659 5658 5657 5655 5654 5655 5655 5655 5655 5654 5652 5650 5648 5647 5646 5645 5644 5644 5644 5643 5642 5641 5638 5636 5634 5631 5629 5630 5630 5628 5626 5625 5624 5622 5621 5620 5619 5618 5618 5618 5618 5617 5616
5651 5649 5648 5648 5647 5647 5647 5648 5648 5648 5645 5643 5641 5640 5639 5638 5638 5636 5635 5636 5636 5636 5636 5635 5633 5630 5630 5628 5626 5624 5623 5621 5618 5615 5613 5612 5611 5611 5611 5611 5611 5611 5610